Torna al catalogo

YAOGAN-30 B

AttivoMilitareVLEO
NORAD 42946·PAYLOAD·🇨🇳 China

Lanciato Sep 29, 2017 da Xichang Satellite Launch Center

Loading…

Prossimi Passaggi (prossime 24 ore)

TLE

AggiornatoSource: Space-Track

Epoca: Sep 14, 2026, 08:14 UTC

1 42946U 17058B   26257.34328138  .00002272  00000-0  16678-3 0  9994
2 42946  34.9968 206.4853 0001927 350.1533   9.9138 15.03181115489280

Traccia YAOGAN-30 B in tempo reale con AllMySat

Download on the App Store